Weather in Bilenke

Ukraine / Donetsk Region     48°46′00″N   37°37′53″E
temp.,
°C
wind,
m/s
gust,
m/s
humid.,
%
clouds,
%
prec.,
mm/h
press.,
hPa
HPBL,
m
23 april, fri
fri2300:00+9sw34815 0.0 102158
03:00+8sw368833 0.0 1022111
06:00+7ssw369139 0.0 1022141
09:00+13sw576427 0.0 1021682
12:00+16sw674815 0.0 10202006
15:00+18sw783877 0.0 10182651
18:00+16ssw7105067 0.0 1016919
21:00+12ssw61264100 0.0 1017470
24 april, sat
sat2400:00+10sw61277100 0.3 1016600
03:00+10sw71179100 0.6 10141320
06:00+7nw5987100 1.4 1016849
09:00+9w57655 1.5 10171135
12:00+11w8104997 0.3 10171884
15:00+13w7935100 0.4 10162771
18:00+11w68447 0.0 10171814
21:00+5nw61178100 0.2 1020771
25 april, sun
sun2500:00+4w38770 0.0 1021303
03:00+2w37751 0.0 1022166
06:00+2wsw35745 0.0 1022137
09:00+7w46485 0.0 10221286
12:00+10wnw45365 0.0 10221996
15:00+12w343464 0.0 10202202
18:00+11wsw233610 0.0 10191967
21:00+7s224798 0.0 102016
26 april, mon
mon2600:00+7s3350100 0.0 101943
03:00+5ssw3354100 0.0 101828
06:00+5sw226373 0.0 101839
09:00+10sw3450100 0.0 1017652
12:00+12w565597 0.1 10161659
15:00+7nw467584 0.4 1017793
18:00+10w344728 0.0 10161372
21:00+6w23625 0.0 101723
27 april, tue
tue2700:00+5w2264100 0.0 101826
03:00+4w126218 0.0 101810
06:00+3sw22635 0.0 101815
09:00+9s344799 0.0 1017591
12:00+13ssw5739100 0.0 10162494
15:00+10sw71066100 0.5 10141367
18:00+9sw7128152 1.3 1013958
21:00+8w510835 1.6 1015405